Regional Weather Roundup
Issued by NWS

Home | Current Version | Previous Version | Graphics & Text | Print | Product List | Glossary On
Versions: 1 2 3 4 5 6 7 8 9 10 11 12 13 14 15 16 17 18 19 20 21 22 23 24 25 26 27 28 29 30 31 32 33 34 35 36 37 38 39 40 41 42 43 44 45 46 47 48 49 50
424
ASUS45 KTFX 221910
RWRMT
MONTANA REGIONAL WEATHER ROUNDUP
NATIONAL WEATHER SERVICE GREAT FALLS MT
1200 PM MST WED FEB 22 2017

NOTE: "FAIR" INDICATES FEW OR NO CLOUDS BELOW 12000 FEET WITH NO
SIGNIFICANT WEATHER AND/OR OBSTRUCTIONS TO VISIBILITY.

MTZ001>007-043-222000-
WEST OF THE DIVIDE

CITY           SKY/WX    TMP DP  RH WIND       PRES   REMARKS
KALISPELL      MOSUNNY   37  29  72 CALM      29.97R
MISSOULA       PTSUNNY   36  31  82 CALM      29.97F
BUTTE          CLOUDY    32  23  69 CALM      29.89F
MULLAN PASS    LGT SNOW  30  24  78 CALM      29.89S
ANACONDA         N/A     36  23  60 NE5       29.89F
DEER LODGE       N/A     30  28  93 CALM      29.94S VSB 1/4
EUREKA           N/A     30  30 100 CALM      30.00S
HAMILTON         N/A     39  25  56 CALM      29.93F
PLAINS           N/A     39  33  79 CALM      30.00S
RONAN            N/A     38  29  70 SW1       30.01S
$$

MTZ008-052>055-222000-
SOUTHWEST MONTANA

CITY           SKY/WX    TMP DP  RH WIND       PRES   REMARKS
BOZEMAN        CLOUDY    35  28  75 CALM      29.91F
DILLON         CLOUDY    35  16  45 W6        29.87F WCI  30
W YELLOWSTONE  CLOUDY    27  19  74 SW17G25   29.89F WCI  14
ENNIS          PTSUNNY   34  19  55 S10G20    29.93F WCI  26
THREE FORKS      N/A     38 -49   2 N9        29.92S WCI  31
TWIN BRIDGES     N/A     37  17  44 SE2       29.90S
$$

MTZ009-010-012-014-046-048-049-054-222000-
EAST SLOPES AND CENTRAL MONTANA

CITY           SKY/WX    TMP DP  RH WIND       PRES   REMARKS
CUT BANK       CLOUDY    29  27  92 N17       29.91R FOG     WCI  17
GREAT FALLS    CLOUDY    38  29  70 CALM      29.90R
HELENA         CLOUDY    41  23  48 W9        29.91S
AUGUSTA          N/A     37  24  61 N8        29.88R WCI  30
CHOTEAU          N/A     37  28  70 N10G18    29.92R WCI  30
CONRAD           N/A     32  29  89 N5        29.94R
RAYNESFORD     FLURRIES  32  30  93 SW8       29.90S WCI  25
$$

MTZ011-013-016-021-045-047-050-051-222000-
NORTH CENTRAL MONTANA

CITY           SKY/WX    TMP DP  RH WIND       PRES   REMARKS
HAVRE          FLURRIES  34  32  92 E9        29.93S WCI  27
LEWISTOWN      LGT SNOW  31  29  92 NW14      29.88S FOG     WCI  21
N BAR RANCH    CLOUDY    32  28  86 SE6       29.89S WCI  26
CHINOOK          N/A     34  30  86 E6        29.96R WCI  29
FORT BENTON      N/A     37  32  81 N6          N/A
GEYSER         FLURRIES  34  31  90 W16       29.88S WCI  23
JUDITH GAP     LGT RAIN  30  28  93 N15       29.86S FOG     WCI  19
STANFORD       FLURRIES  33  29  86 NW18      29.87S WCI  22
$$

MTZ017>020-022>027-061-062-222000-
NORTHEAST MONTANA

CITY           SKY/WX    TMP DP  RH WIND       PRES   REMARKS
GLASGOW        CLOUDY    32  26  78 VRB3      29.95R
JORDAN           N/A     32  29  88 N3        29.93R
SIDNEY         CLOUDY    31  28  89 N9        29.93R WCI  23
WOLF POINT     CLOUDY    35  25  66 NE8       29.96R WCI  29
PLENTYWOOD       N/A     32  25  74 N8        29.92S WCI  25
POPLAR           N/A     30  25  80 N8        29.95R WCI  23
SCOBEY           N/A     32  19  58 N7        29.91R WCI  26
$$

MTZ028>42-056>058-222000-
SOUTHCENTRAL AND SOUTHEAST MONTANA

CITY           SKY/WX    TMP DP  RH WIND       PRES   REMARKS
BAKER          CLOUDY    31  31 100 N12       29.86R WCI  22
BILLINGS       CLOUDY    39  30  70 N12       29.89F WCI  32
LIVINGSTON     CLOUDY    39  24  55 W17       29.88F WCI  30
MILES CITY     LGT SNOW  34  33  96 N8        29.91R VSB 1   WCI  27
BIG TIMBER     SUNNY     39  19  45 W25       29.88F WCI  28
EKALAKA          N/A     30  27  89 NW10      29.83  WCI  21
FORSYTH          N/A     34  32  93 N6        29.91S WCI  29
LAUREL           N/A     41  25  53 W5        29.89S
$$

REGIONAL REPORTS...DAKOTAS

CITY           SKY/WX    TMP DP  RH WIND       PRES   REMARKS
WILLISTON      CLOUDY    32  26  78 N13       29.92R WCI  22
MINOT          CLOUDY    33  28  81 N13       29.86S WCI  24
DICKINSON      LGT SNOW  30  26  85 N13       29.82S FOG     WCI  20
BEACH            N/A    N/A N/A N/A MISG        N/A
CROSBY         CLOUDY    32  27  80 N8        29.94S WCI  25
TIOGA          CLOUDY    28  27  93 NE13      29.90S WCI  18
WATFORD CITY   CLOUDY    30  28  93 N12       29.90S WCI  21
BISMARCK       LGT SNOW  35  33  92 N9        29.82R FOG     WCI  28
GRAND FORKS    CLOUDY    35  25  66 N23G30    29.78S WCI  23
FARGO          SNOW      34  33  96 N15       29.70S VSB 1/2 WCI  24
BUFFALO SD       N/A     36  32  85 NW20      29.75R WCI  25
RAPID CITY     SUNNY     57  20  23 NW20G30   29.75R
$$

REGIONAL REPORTS...WYOMING/IDAHO/WASHINGTON

CITY           SKY/WX    TMP DP  RH WIND       PRES   REMARKS
GILLETTE       SUNNY     45  26  47 NW24G30   29.83F
SHERIDAN       CLOUDY    40  28  62 N13       29.86R
BUFFALO WY     CLOUDY    42  26  53 N17G25    29.85S
CODY           PTSUNNY   41  14  33 NW8       29.85F
YELLOWSTONE LA   N/A     25  17  72 CALM      29.87F
IDAHO FALLS    MOSUNNY   35  28  75 SW12      29.94F WCI  27
SALMON         CLOUDY    37  30  75 N7        29.91F
BOISE          CLOUDY    40  27  59 W7        29.97F
SPOKANE        CLOUDY    32  29  88 S5        30.05S
$$

REGIONAL REPORTS...ALBERTA

CITY           SKY/WX    TMP DP  RH WIND       PRES   REMARKS
EDMONTON       PTSUNNY   27  19  74 NW8       30.01R WCI  18
CALGARY        PTSUNNY   28  21  74 N9        29.95S WCI  20
LETHBRIDGE     CLOUDY    32  30  93 NW10      29.95R FOG     WCI  24
MEDICINE HAT   CLOUDY    37  28  70 VRB2      29.94R
WATERTON GATE    N/A     27  23  86 E3          N/A
CARDSTON         N/A     28  25  86 NW7         N/A  WCI  21
MILK RIVER       N/A     30  28  93 NW13        N/A  WCI  20
ONEFOUR          N/A     32  27  80 SE2         N/A
$$

REGIONAL REPORTS...SASKATCHEWAN

CITY           SKY/WX    TMP DP  RH WIND       PRES   REMARKS
SWIFT CURRENT  MOSUNNY   34  27  75 NW8       29.91R WCI  27
REGINA         PTSUNNY   36  25  64 NW9       29.92S WCI  29
SASKATOON      CLOUDY    28  25  86 N9        29.97R WCI  20
CYPRESS HILLS    N/A     32  19  59 SW2         N/A
VAL MARIE        N/A     34  25  69 NE6         N/A  WCI  29
ROCKGLEN         N/A     30  21  69 N5          N/A
ASSINIBOIA       N/A     27  21  80 NW7         N/A  WCI  19
$$




USA.gov is the U.S. government's official web portal to all federal, state and local government web resources and services.